Theta_e
305 303 303 303 305 305 304 303 303 301 299 299 299 299 300 301 302 302 304 303 304 304 304 304 305 309 311 314 314 311 311 310 311 311 312 313 313 314 316 315 316 316 315 314 313 311 310
304 304 304 302 301 302 303 302 301 299 299 298 299 299 300 301 302 303 303 304 305 305 305 306 307 309 309 311 311 311 311 310 311 311 312 312 313 312 313 313 314 315 314 313 312 312 310
306 304 304 302 301 300 301 300 299 299 298 298 298 299 300 300 301 303 304 305 305 306 307 308 309 308 312 313 311 311 311 311 311 311 312 312 311 312 313 314 313 312 312 313 314 313 311
308 304 303 302 300 300 300 299 299 298 298 298 298 299 299 300 301 304 303 305 306 308 309 310 309 307 312 311 310 310 311 310 311 311 312 311 310 312 313 310 309 311 311 312 313 313 311
308 306 303 303 300 298 298 298 298 298 298 298 298 298 299 301 302 304 304 305 306 307 308 308 309 310 313 309 309 310 309 311 310 311 311 309 310 312 310 310 309 310 311 311 313 314 313
309 308 304 303 302 298 298 297 297 298 297 297 297 298 299 300 303 303 304 306 307 307 307 307 306 310 309 309 309 309 309 310 311 311 313 312 310 311 310 310 312 310 310 311 312 315 314
311 309 305 304 303 300 297 297 297 297 297 297 297 298 299 301 304 303 304 306 306 308 309 308 308 308 308 308 308 309 308 310 310 311 311 311 311 311 309 309 306 309 311 312 312 309 312
310 309 307 306 304 303 298 297 296 297 297 297 297 298 299 301 304 303 304 308 308 307 310 307 308 308 307 308 309 309 309 311 312 312 310 311 310 309 310 311 311 312 313 313 311 307 309
311 310 309 308 305 303 301 296 296 296 296 297 297 297 299 301 303 302 306 307 307 307 309 309 308 309 309 308 309 310 309 309 311 312 311 310 310 309 310 310 311 311 311 310 308 308 306
312 311 310 309 308 304 303 298 296 296 296 296 296 297 299 301 303 301 305 306 307 303 308 308 310 309 307 309 311 307 304 309 310 310 309 309 307 309 310 311 309 310 306 306 307 308 309
312 312 311 310 309 306 304 301 296 295 296 296 296 297 299 301 301 303 303 306 306 303 327 308 310 307 306 309 309 309 302 307 309 310 307 308 309 309 309 308 307 308 307 308 308 308 308
311 313 312 311 310 308 304 303 297 295 295 295 296 297 299 300 301 303 305 306 306 317 326 309 308 307 306 305 306 305 305 304 303 306 305 305 305 307 308 306 306 306 307 306 306 307 311
314 312 313 311 310 308 305 304 299 295 295 295 295 297 300 300 301 303 305 304 314 321 305 308 308 307 306 306 305 305 305 305 307 311 306 303 305 306 306 308 306 307 308 311 310 312 310
316 314 313 312 311 309 306 304 302 295 294 294 295 300 300 301 303 303 301 308 314 309 306 306 306 306 308 304 304 304 306 306 302 303 305 309 311 307 302 307 307 308 307 310 307 309 308
317 316 315 314 312 310 308 305 304 296 294 294 296 300 301 300 302 303 305 312 314 307 306 308 306 307 305 304 304 304 304 305 302 302 306 306 304 300 299 299 302 305 309 305 306 305 306
320 318 316 315 313 311 310 306 304 297 294 294 296 300 300 301 302 301 305 307 304 306 305 304 307 304 306 304 304 304 304 301 302 299 298 301 304 299 300 298 298 302 302 305 305 308 309
321 320 319 317 314 312 311 308 305 297 294 294 298 301 299 301 300 303 307 305 303 303 304 305 305 304 304 304 304 304 303 300 298 298 298 299 300 299 298 300 301 300 302 301 300 303 306
319 320 320 318 316 314 312 310 306 297 293 295 298 304 298 301 304 300 302 300 302 303 302 305 304 303 303 303 304 304 303 299 296 298 300 297 300 301 300 292 292 294 297 300 302 304 300
317 319 319 319 318 315 314 312 308 297 293 297 300 300 298 299 307 302 301 302 301 302 302 303 304 303 302 304 304 302 301 295 295 297 298 297 300 304 302 294 293 294 293 293 293 294 298
313 317 319 318 318 317 315 314 310 298 292 296 300 303 300 299 296 300 302 302 303 297 299 298 300 299 301 302 300 301 301 296 293 295 295 296 298 301 307 304 295 294 292 292 293 296 296
308 312 315 317 317 318 315 314 311 297 293 296 298 301 299 303 299 299 300 300 302 301 297 297 299 300 301 302 301 301 299 296 294 296 293 294 299 296 295 293 292 293 293 292 292 293 293
301 307 312 316 317 316 316 314 311 304 292 295 297 299 296 297 296 298 300 300 301 298 299 298 299 297 299 300 299 298 299 298 299 294 295 292 297 292 293 291 291 291 291 291 290 290 290
301 299 303 310 315 316 316 314 311 304 292 294 293 293 300 297 296 298 299 300 300 298 293 294 296 296 297 296 292 291 291 292 294 295 295 293 293 291 294 290 290 290 290 290 290 288 289
302 300 299 303 312 314 314 313 311 303 293 295 295 295 302 304 296 297 295 297 297 296 296 292 292 294 291 289 290 290 290 291 291 290 291 292 291 291 293 290 292 288 285 286 288 287 284
303 302 300 301 311 313 312 309 311 307 299 295 295 295 298 296 295 294 295 294 293 292 293 292 291 290 290 290 290 290 289 290 290 289 290 289 291 292 291 291 291 287 286 286 287 287 281
303 302 300 302 307 312 310 306 307 302 300 297 294 293 294 295 293 293 293 293 293 293 292 290 290 289 289 291 291 294 299 290 290 290 288 289 290 291 289 290 290 287 284 282 282 288 280
303 301 300 301 305 309 305 303 303 301 299 299 294 293 293 293 289 290 293 292 292 292 293 290 290 289 289 291 293 292 291 289 290 290 290 290 290 291 291 291 291 285 283 282 287 286 280
301 302 302 303 304 307 304 303 301 299 298 295 291 292 292 290 287 287 288 290 290 291 293 289 290 288 289 290 291 291 290 290 289 289 290 291 291 291 290 291 290 283 282 285 283 279 279
304 305 305 305 306 305 303 302 299 297 294 293 291 290 290 288 286 284 284 285 286 288 290 288 291 289 290 292 290 290 290 287 289 290 285 289 289 291 290 289 282 281 282 280 279 279 278
Wind_Speed
4 6 6 6 7 8 9 9 9 9 9 9 10 10 11 11 11 11 11 9 8 7 5 3 3 5 3 4 2 6 8 8 4 1 6 2 2 2 4 3 2 5 4 5 7 14 13
4 5 6 7 8 8 9 9 8 8 8 9 10 10 11 11 11 11 10 9 7 7 6 5 4 4 1 2 2 6 6 6 6 4 4 4 2 2 6 2 0 3 5 5 5 10 9
3 3 5 6 8 8 9 8 8 8 8 9 10 10 11 12 11 11 10 7 6 6 6 6 5 5 6 4 3 5 3 6 8 3 3 3 1 1 4 5 3 4 5 4 5 10 5
2 3 4 6 7 8 9 8 7 7 7 8 9 10 11 12 13 12 10 6 5 5 5 5 4 3 4 1 3 7 3 4 5 6 6 4 4 6 3 5 3 2 2 5 4 10 5
3 4 4 6 8 9 10 10 7 7 8 9 10 11 12 13 13 12 8 3 3 4 5 3 2 1 4 1 2 7 7 4 3 4 5 4 4 3 3 3 3 2 4 4 4 4 5
5 4 5 5 7 8 9 10 8 8 8 9 11 12 12 13 12 12 6 2 5 3 3 3 4 2 1 2 3 5 4 4 3 1 1 3 2 2 3 5 4 4 4 3 5 6 4
7 5 4 4 6 7 9 10 9 8 8 10 11 12 13 14 10 11 4 2 1 2 10 5 2 2 2 3 4 5 5 1 1 2 1 3 3 3 1 1 1 0 2 5 1 2 3
9 6 4 4 5 7 8 8 10 9 9 9 10 11 12 12 7 10 6 6 3 3 5 4 2 2 2 3 1 8 5 0 1 2 0 2 1 2 3 3 2 2 3 6 2 1 3
10 7 6 4 5 5 7 7 8 7 8 10 11 11 11 10 3 7 13 7 5 4 2 3 2 2 2 2 2 5 4 1 3 3 2 1 3 3 1 3 3 5 8 5 4 1 2
14 11 9 7 5 5 6 7 7 6 7 8 9 10 10 6 3 3 4 4 4 2 2 3 2 2 1 1 2 2 4 2 1 2 3 2 2 5 5 5 6 8 1 2 3 4 5
17 14 11 9 7 5 5 6 7 7 6 6 8 9 8 7 4 3 2 2 2 1 2 1 1 1 1 1 1 2 3 2 2 4 4 2 5 4 5 2 5 2 2 1 2 6 5
18 16 13 11 8 7 6 6 7 7 7 7 8 7 5 3 5 3 2 2 1 1 3 3 1 1 1 2 1 4 3 4 2 1 1 2 2 1 3 3 1 4 2 1 2 3 6
19 18 15 12 10 7 6 6 6 6 5 5 5 5 4 3 2 2 1 2 1 2 2 3 2 1 0 0 1 4 2 1 2 2 2 1 2 1 0 3 2 3 3 4 4 4 5
21 19 17 14 11 8 6 6 6 6 4 3 3 3 5 5 2 2 0 2 3 0 3 1 2 1 2 0 2 0 1 2 2 1 1 3 3 5 1 1 2 5 3 4 7 9 13
26 22 19 16 14 10 8 7 6 6 5 3 1 2 2 4 3 2 1 1 2 3 3 4 2 2 2 2 2 1 2 1 1 1 4 2 2 2 2 2 2 4 6 3 6 9 7
28 25 22 19 16 14 10 8 6 4 4 2 1 2 2 3 2 0 1 3 1 1 2 1 3 1 3 3 3 2 2 2 3 1 1 1 4 1 2 1 3 3 2 2 2 6 8
23 22 24 21 19 16 13 9 6 4 2 1 1 1 2 2 3 0 2 3 2 2 2 3 3 3 4 3 4 4 2 3 1 4 0 1 2 3 2 4 2 3 3 2 2 4 5
18 18 22 22 22 19 16 12 8 5 4 3 2 2 3 2 1 1 2 1 1 2 0 2 2 3 4 5 4 4 4 1 1 3 4 2 1 4 3 2 1 1 2 4 6 7 3
9 15 22 22 20 22 18 15 11 8 8 6 2 1 3 1 3 3 1 1 0 2 2 2 3 2 1 3 3 3 1 2 1 3 3 5 3 4 4 3 2 4 3 2 2 0 12
8 10 15 24 20 22 21 17 13 12 10 6 2 2 1 2 1 3 4 2 3 1 1 1 1 2 2 3 1 1 3 1 1 2 3 4 4 9 13 11 1 4 6 8 8 6 14
9 11 14 21 27 20 22 19 17 14 11 6 1 2 1 3 4 4 3 4 4 4 1 3 2 6 5 4 3 4 2 3 1 0 1 2 5 4 8 7 6 9 12 12 15 16 12
7 9 10 17 29 25 21 22 19 16 13 3 3 3 1 2 2 5 4 6 8 5 7 4 5 3 7 5 3 4 6 4 2 3 4 1 3 1 5 4 4 10 13 14 14 15 16
4 6 10 10 28 27 27 25 22 22 17 5 3 1 2 4 4 3 4 4 6 8 1 1 4 5 6 3 3 5 4 3 2 3 7 2 3 2 5 2 7 12 6 9 3 1 3
7 9 8 12 17 30 30 26 24 25 28 5 6 4 3 3 4 4 4 3 4 3 2 2 2 4 4 10 10 7 8 7 4 5 2 4 4 2 3 3 5 2 2 3 1 2 0
11 10 10 9 13 27 32 29 20 23 26 13 6 2 3 3 3 4 7 4 6 4 3 3 1 2 11 4 2 2 2 3 3 4 1 1 3 3 3 3 6 3 1 1 1 1 1
13 13 13 8 10 27 32 25 19 22 24 18 9 4 2 4 3 3 4 5 4 4 3 2 3 3 2 3 2 4 4 2 3 3 2 2 1 5 2 4 5 4 4 3 2 6 5
15 18 14 10 10 28 28 21 17 19 21 19 8 7 3 4 1 1 3 4 5 3 3 4 5 3 1 3 4 5 3 1 3 5 5 3 3 10 8 5 4 4 5 4 1 2 5
19 18 16 14 16 26 23 21 21 21 18 17 7 9 3 3 2 1 2 3 3 3 4 6 5 2 3 5 4 3 4 3 2 2 3 6 6 4 4 5 7 8 5 4 2 3 2
12 11 8 10 21 23 25 21 21 21 21 16 7 11 13 12 3 5 10 7 1 2 2 2 2 3 3 3 2 2 3 3 3 3 1 4 3 2 5 0 3 5 0 2 2 1 2
Wind_Direction
41 41 39 30 22 21 21 20 14 19 20 16 15 13 10 6 4 4 1 5 11 15 23 51 88 114 112 75 74 356 4 10 20 63 48 49 64 112 122 107 104 99 120 87 99 87 94
33 27 24 23 20 19 17 14 14 19 19 13 11 8 4 3 1 359 358 2 19 32 36 60 83 103 148 123 15 359 9 30 49 62 56 43 110 131 105 95 78 104 122 124 127 139 133
14 10 12 13 19 18 15 12 12 12 14 9 6 1 360 358 355 355 355 4 26 44 51 60 76 103 62 83 38 17 41 41 44 63 88 53 79 224 138 132 113 122 141 137 135 160 136
332 349 3 3 8 12 11 11 12 8 8 3 359 358 357 354 352 353 357 13 42 56 57 57 63 81 76 71 58 37 40 25 52 62 77 65 68 88 16 105 82 144 219 189 135 165 151
297 330 349 3 4 4 4 2 1 1 0 1 359 357 355 354 353 354 2 44 54 61 54 42 41 51 99 53 28 9 23 9 19 41 55 58 53 63 129 174 172 186 221 205 156 213 152
271 309 332 354 3 2 2 359 1 2 1 1 360 357 355 354 354 359 6 82 66 61 25 57 58 143 61 29 358 359 9 32 43 63 82 42 58 147 142 207 252 216 222 201 209 162 202
247 279 308 333 352 359 359 357 354 357 359 0 359 357 357 357 355 3 25 93 171 117 41 46 29 47 6 342 31 25 3 345 38 74 61 39 233 223 86 297 0 38 253 259 143 97 211
235 246 277 318 335 349 356 2 355 351 353 357 358 356 357 360 10 15 52 70 98 111 87 34 40 55 16 338 117 21 8 140 65 100 292 187 229 65 104 112 149 183 244 246 243 242 253
247 244 258 286 311 328 347 354 356 353 354 353 353 356 356 354 45 43 73 102 118 128 79 48 41 29 338 343 61 354 352 134 96 120 84 237 113 144 168 172 218 228 242 231 269 188 149
243 243 253 261 282 307 332 342 347 349 350 353 352 351 357 4 97 66 62 92 118 136 157 39 28 58 325 2 70 337 356 336 103 150 163 233 145 197 198 223 216 264 290 219 207 231 259
242 244 246 256 270 288 311 335 340 341 345 351 354 353 0 28 106 72 109 116 133 198 357 81 49 331 22 33 41 75 6 296 192 168 194 106 182 190 219 255 195 16 62 122 233 256 290
237 238 241 248 262 278 295 322 340 344 349 352 353 355 358 23 59 84 123 134 159 206 258 167 222 226 194 45 62 327 19 43 26 139 313 36 34 337 1 59 28 130 213 198 187 243 249
236 237 239 244 250 264 281 306 330 338 347 348 351 355 26 42 92 18 24 207 247 203 62 172 173 54 55 10 60 17 34 16 294 276 210 163 166 108 308 202 155 204 264 284 225 204 264
236 236 238 242 241 254 274 294 316 321 326 338 340 48 58 67 42 8 355 234 222 47 194 119 161 178 226 147 149 17 182 220 126 271 235 253 228 181 35 290 320 191 240 252 290 293 298
235 234 235 239 240 244 259 276 301 318 320 329 326 68 86 8 360 11 222 257 248 190 110 160 161 215 178 177 249 263 205 200 131 218 228 219 229 105 45 344 313 148 216 21 289 269 276
241 238 234 235 238 240 246 262 283 307 313 324 180 104 46 8 11 248 162 240 220 64 120 175 234 274 233 178 211 212 196 148 160 208 278 146 266 55 97 224 83 278 55 217 208 289 280
253 245 241 234 231 235 240 245 262 278 269 282 156 163 344 46 70 62 226 219 171 152 195 205 206 218 223 215 217 208 196 113 154 142 121 166 267 127 214 201 209 162 204 207 294 234 265
243 255 253 241 232 235 236 236 241 241 219 184 162 234 348 139 151 60 195 185 64 167 140 233 253 240 223 181 209 234 237 73 138 168 172 145 207 250 260 113 337 263 258 239 233 239 247
285 249 249 248 238 234 237 233 225 220 204 158 182 108 14 66 209 190 138 191 303 180 201 189 232 275 9 223 243 220 175 44 154 183 175 168 193 287 200 171 178 232 188 171 120 183 246
259 280 251 245 237 237 235 231 223 216 203 181 153 192 65 70 48 140 156 193 188 83 123 56 113 125 156 218 203 278 198 149 311 169 144 187 212 242 266 307 111 209 210 210 212 241 267
246 244 251 249 238 233 237 229 220 211 207 200 153 207 25 176 204 157 174 150 167 189 163 170 200 219 193 208 195 223 178 175 220 184 91 255 250 246 265 271 251 253 250 231 224 243 255
255 249 243 242 239 243 234 231 220 203 205 231 168 168 91 103 116 138 181 206 199 178 170 190 212 160 193 215 216 188 174 206 211 175 191 184 250 251 262 265 265 265 254 247 254 259 262
296 274 252 246 235 243 240 230 216 200 177 198 198 145 136 143 145 166 212 198 203 150 217 1 171 157 197 206 88 83 74 61 111 190 181 200 226 245 277 348 318 273 287 229 201 70 277
306 326 281 255 241 239 244 236 221 192 192 197 196 158 117 194 177 201 165 151 164 204 140 146 175 172 120 122 112 106 79 82 92 65 68 177 192 231 290 293 250 77 69 56 15 262 85
304 308 316 263 238 235 236 232 225 211 195 206 194 159 143 156 145 150 151 127 107 80 89 138 56 53 144 126 148 159 166 169 90 57 59 343 197 238 267 245 324 178 174 119 22 91 129
297 307 311 265 240 230 229 223 220 193 200 201 186 145 112 132 177 51 148 172 151 149 137 84 67 119 156 193 171 229 237 142 191 143 60 101 53 223 171 262 277 76 137 116 98 271 174
299 301 291 254 228 219 203 196 198 188 194 181 173 162 83 109 131 187 153 168 146 139 127 143 157 167 314 199 187 204 217 88 207 186 167 168 207 220 227 252 271 135 139 139 207 35 166
309 298 280 248 209 203 190 183 184 175 176 163 151 155 110 92 72 304 52 152 131 169 173 140 124 199 174 210 201 178 204 181 188 125 186 189 186 196 193 219 251 157 137 221 79 163 229
312 316 287 201 186 186 180 185 170 168 167 167 110 116 99 76 81 105 87 69 57 13 132 156 78 157 163 143 201 144 160 166 162 221 174 218 245 212 225 206 109 170 66 125 154 199 259